Location: Lecco
(45.8566°N, 9.3977°E)
Time: 12:21:55
(UTC+02:00)

Vanguard 2 Rocket - Pass Details

Date: 16 August 2020
Orbit: 554 x 3326 km, 32.9° (Epoch: 24 September)

Event Time Altitude Azimuth Distance (km) Brightness Sun altitude
Rises 17:05:20 0° 215° (SW) 2,839 10.1 34.0°
Reaches altitude 10° 17:08:12 10° 191° (S) 2,122 9.2 33.5°
Maximum altitude 17:11:03 16° 154° (SSE) 2,006 8.7 33.0°
Drops below altitude 10° 17:14:34 10° 119° (ESE) 2,730 9.1 32.4°
Sets 17:19:06 0° 100° (E) 4,212 9.8 31.6°
